Flag for France Weather past 2 weeks in Orléans, France

Now
77 °F

Clear.


Feels Like: 79 °F
Forecast: 58 / 77 °F
Wind: 7 mph from North

Location: Orleans Airport

Current Time: Jul 25, 2014 at 9:18:18 PM

Latest Report: Jul 25, 2014 at 9:00 PM


Visibility: N/A

Pressure: 29.89 "Hg

Humidity: 47%

Dew point: 55 °F

Location of OrléansLocation

Historic Weather in Orléans — Graph

°F

Orléans temperature yesterday

Maximum temperature yesterday: 86 °F (at 2:00 PM)
Minimum temperature yesterday: 59 °F (at 6:30 AM)
Average temperature yesterday: 74 °F

Past Weeks' High & Low Weather Summary

 TemperatureHumidityPressure
High91 °F (Jul 18, 5:00 PM)100% (Jul 12, 4:30 AM)30.18 "Hg (Jul 12, 4:30 AM)
Low50 °F (Jul 14, 4:00 AM)37% (Jul 24, 3:00 PM)29.74 "Hg (Jul 19, 5:30 AM)
Average69 °F75%29.99 "Hg
* Reported Jul 10 8:00 PM — Jul 25 8:00 PM, Orléans, Weather by CustomWeather, © 2014

Note: Actual official high and low records may vary slightly from our data, if they occured in-between our weather recording intervals... More about our weather records

Advertising

Orléans weather history for previous 24 hours

 ConditionsComfort  
Time TempWeatherWind HumidityBarometerVisibility
8:00 PM
Jul 25
79 °FClear.8 mph42%29.89 "HgN/A
7:30 PM81 °FClear.6 mph39%29.89 "HgN/A
7:00 PM82 °FClear.2 mph40%29.86 "HgN/A
6:30 PM82 °FClear.6 mph42%29.86 "HgN/A
6:00 PM81 °FClear.6 mph45%29.86 "HgN/A
5:30 PM81 °FClear.3 mph45%29.86 "HgN/A
5:00 PM81 °FClear.2 mph39%29.89 "HgN/A
4:30 PM81 °FClear.1 mph45%29.89 "HgN/A
4:00 PM81 °FClear.2 mph42%29.89 "HgN/A
3:30 PM81 °FClear.6 mph48%29.89 "HgN/A
3:00 PM79 °FClear.3 mph45%29.89 "HgN/A
2:30 PM79 °FClear.3 mph54%29.92 "HgN/A
2:00 PM77 °FClear.5 mph57%29.92 "HgN/A
1:30 PM75 °FClear.6 mph65%29.92 "HgN/A
1:00 PM73 °FClear.5 mph65%29.92 "HgN/A
12:30 PM72 °FHaze.5 mph69%29.95 "Hg2 mi
12:00 PM72 °FMild.5 mph69%29.95 "HgN/A
11:30 AM70 °FMild.5 mph73%29.95 "HgN/A
11:00 AM72 °FMild.5 mph65%29.95 "HgN/A
10:30 AM70 °FMild.7 mph73%29.95 "HgN/A
10:00 AM68 °FMild.3 mph78%29.95 "HgN/A
9:30 AM68 °FMild.12 mph73%29.92 "HgN/A
9:00 AM68 °FMild.10 mph73%29.92 "HgN/A
8:30 AM64 °FMild.7 mph83%29.92 "HgN/A
8:00 AM64 °FMild.7 mph83%29.92 "HgN/A
7:30 AM63 °FThundershowers. Cloudy.5 mph88%29.92 "HgN/A
7:00 AM61 °FCool.6 mph94%29.92 "HgN/A
6:30 AM63 °FClear.3 mph88%29.89 "HgN/A
6:00 AM63 °FClear.8 mph88%29.89 "HgN/A
5:30 AM63 °FClear.5 mph88%29.89 "HgN/A
5:00 AM64 °FClear.7 mph83%29.89 "HgN/A
4:30 AM64 °FClear.5 mph88%29.89 "HgN/A
4:00 AM64 °FClear.5 mph88%29.89 "HgN/A
3:30 AM63 °FClear.3 mph88%29.89 "HgN/A
3:00 AM64 °FClear.3 mph83%29.92 "HgN/A
2:30 AM64 °FClear.7 mph83%29.92 "HgN/A
2:00 AM66 °FMild.8 mph83%29.92 "HgN/A
1:30 AM66 °FMild.3 mph83%29.92 "HgN/A
1:00 AM68 °FMild.3 mph78%29.92 "HgN/A
12:30 AM68 °FClear.2 mph73%29.92 "HgN/A
12:00 AM68 °FMild.2 mph73%29.92 "HgN/A
11:30 PM
Jul 24
70 °FMild.7 mph69%29.92 "HgN/A
11:00 PM70 °FMild.2 mph73%29.92 "HgN/A
10:30 PM72 °FThunderstorms. Cloudy.5 mph65%29.92 "HgN/A
10:00 PM73 °FThunderstorms. Cloudy.7 mph61%29.92 "HgN/A
9:30 PM72 °FThunderstorms. Cloudy.6 mph69%29.92 "HgN/A
9:00 PM73 °FThunderstorms. Cloudy.10 mph61%29.92 "HgN/A
Weather by CustomWeather, © 2014

See weather overviewHow to use our weather pages